Other Public Products
Issued by NWS Grand Forks, ND

Home | Current Version | Previous Version | Graphics & Text | Print | Product List | Glossary On
Versions: 1 2 3 4 5 6 7 8 9 10 11 12 13 14 15 16 17 18 19 20 21 22 23 24 25 26 27 28 29 30 31 32 33 34 35 36 37 38 39 40 41 42 43 44 45 46 47 48 49 50
000
FPUS83 KFGF 221531
OPUFGF
PRAIRIE TO PINES WEATHER ROUNDUP
NATIONAL WEATHER SERVICE EASTERN NORTH DAKOTA/GRAND FORKS ND
900 AM CST SUN JAN 22 2017

 **SATELLITE DATA USED TO AUGMENT SKY COVER AT AUTOMATED STATIONS**
 *****  WEATHER ACROSS EASTERN NORTH DAKOTA  *****

CITY           SKY/WX    TMP DP  RH WIND       PRES   REMARKS
GRAND FORKS    CLOUDY    34  31  88 W6        29.70R FOG
GRAND FORKS AF CLOUDY    32  32 100 W7        29.71R
GRAND CITY NWS NOT AVBL
BUXTON           N/A     33  33  99 W6          N/A
DEVILS LAKE    CLOUDY    27  27 100 NW17      29.70R FOG     WCI  14
FARGO          CLOUDY    35  33  92 W6        29.72R FOG
WAHPETON ARPT  CLOUDY    32  32 100 W10       29.74R WCI  24
$$

 *****  WEATHER ACROSS CENTRAL AND WESTERN NORTH DAKOTA  *****

CITY           SKY/WX    TMP DP  RH WIND       PRES   REMARKS
JAMESTOWN      CLOUDY    30  29  96 W9        29.71R FOG     WCI  22
BISMARCK       CLOUDY    29  27  92 W8        29.77R FOG     WCI  21
MINOT          CLOUDY    31  27  85 W16       29.71R WCI  20
MINOT AFB      CLOUDY    29  25  84 W18       29.70R WCI  17
GARRISON         N/A     29  28  96 W10       29.73R WCI  20
WILLISTON      CLOUDY    29  26  89 W10       29.77R WCI  20
DICKINSON      CLOUDY    24  22  91 NW12      29.75R FOG     WCI  13
HETTINGER      CLOUDY    23  20  88 NW20      29.79R WCI   8
$$

 *****  OTHER OBSERVATIONS NORTHEAST NORTH DAKOTA  *****

CITY           SKY/WX    TMP DP  RH WIND       PRES   REMARKS
WALHALLA       NOT AVBL
LANGDON        NOT AVBL
CAVALIER       CLOUDY    32  32 100 CALM      29.70R FOG
GRAFTON        CLOUDY    32  32 100 W5        29.71R FOG
CANDO          NOT AVBL
FORT TOTTEN      N/A     28  28 100 NW7       29.95S WCI  21
ROLLA            N/A    N/A N/A N/A MISG        N/A
RUGBY            N/A     27  27 100 NW12      29.70R FOG     WCI  16
 ***** THE ABOVE OBSERVATIONS ARE NON NWS ARE NOT QUALITY
        CONTROLLED AND MAY MIS-REPORT RAIN FOR SNOW...
$$

 *****  OTHER OBSERVATIONS SOUTHEAST NORTH DAKOTA *****

CITY           SKY/WX    TMP DP  RH WIND       PRES   REMARKS
COOPERSTOWN    CLOUDY    32  30  93 NW12      29.71R FOG     WCI  23
VALLEY CITY    CLOUDY    32  32 100 NW7       29.73R FOG
OAKES          NOT AVBL
GWINNER        CLOUDY    32  32 100 NW10      29.74R WCI  24
SHEYENNE NWR     N/A     32  31  96 NW5       29.95S
BUFFALO          N/A     31  29  96 W6          N/A  WCI  25
WYNDMERE         N/A     34  32  93 W10         N/A
 ***** THE ABOVE OBSERVATIONS ARE NON NWS ARE NOT QUALITY
       CONTROLLED AND MAY MIS-REPORT RAIN FOR SNOW...
$$

  *****  WEATHER ACROSS NORTHERN MINNESOTA  *****

CITY           SKY/WX    TMP DP  RH WIND       PRES   REMARKS
FLAG ISLAND    FOG       34  32  93 CALM      29.68S VSB 1/2
WARROAD        FOG       34  28  80 CALM      29.70R VSB<1/4
ROSEAU         HAZE      34  28  80 CALM      29.69R VSB 1/4
HALLOCK        FOG       34  32  93 CALM      29.69R VSB<1/4
THF RVR FALLS  CLOUDY    34  34 100 CALM      29.70R FOG
HALSTAD          N/A     33  32  96 W9          N/A
FOSSTON        FOG       32  32 100 CALM      29.70R VSB<1/4
BAUDETTE       FOG       33  32  96 NW3       29.67S VSB 1/2
WASKISH        FOG       34  34 100 CALM      29.69R VSB 1/2
CROOKSTON      FOG       34  34 100 NW3       29.71R VSB<1/4
$$
  *****  WEATHER ACROSS CENTRAL AND WEST MINNESOTA  *****

CITY           SKY/WX    TMP DP  RH WIND       PRES   REMARKS
BEMIDJI        FOG       32  32 100 W3        29.68R VSB 1/2
PARK RAPIDS    CLOUDY    34  31  88 W6        29.67R
WADENA         CLOUDY    34  34 100 CALM      29.69R FOG
DETROIT LAKES  FOG       34  34 100 W3        29.70R VSB 1/4
MOORHEAD       CLOUDY    34  32  93 W7        29.73R FOG
FERGUS FALLS   FOG       32  32 100 NW6       29.76R VSB 1/4
ELBOW LAKE     SNOW      32  32 100 NW7       29.73R VSB<1/4
MORRIS MN      FOG       34  34 100 NW10      29.72R VSB 1/2
STAPLES        FOG       34  34 100 NW3       29.70R VSB 1
WHEATON        CLOUDY    37  37 100 W10       29.77R FOG
$$
  *****  WEATHER ELSEWHERE ACROSS MINNESOTA  *****

CITY           SKY/WX    TMP DP  RH WIND       PRES   REMARKS
DULUTH         FOG       34  34 100 NW6       29.64R VSB 1/2
INTRNTL FALLS  FOG       34  33  96 CALM      29.67R VSB 1/4
ELY            LGT SNOW  32  32 100 CALM      29.64S
CLOQUET        CLOUDY    34  34 100 NW3       29.65R FOG
BRAINERD       CLOUDY    33  33 100 CALM      29.69R FOG
HIBBING        CLOUDY    32  32 100 NW6       29.64S
ALEXANDRIA     FOG       34  34 100 CALM      29.71S VSB 1/4
SAINT CLOUD    CLOUDY    34  34 100 NW7       29.69R FOG
MINNEAPOLIS    CLOUDY    35  33  92 NW5       29.69R
$$

  *****  WEATHER ACROSS SOUTH DAKOTA  *****

CITY           SKY/WX    TMP DP  RH WIND       PRES   REMARKS
SIOUX FALLS    CLOUDY    33  31  92 NW13      29.75R WCI  24
BROOKINGS      CLOUDY    31  30  96 NW9       29.73R FOG     WCI  23
WATERTOWN      CLOUDY    29  29 100 W8        29.74R FOG     WCI  21
HURON          MOCLDY    21  20  96 NW17      29.82R WCI   7
SISSETON         N/A     32  31  96 NW9       29.73R WCI  24
ABERDEEN       CLOUDY    29  24  82 NW14      29.77R WCI  18
MITCHELL       FAIR      28  26  92 NW10      29.80R WCI  19
PIERRE         FAIR      21  17  84 W9        29.81R WCI  11
MOBRIDGE       CLOUDY    17  12  80 CALM      29.78R
RAPID CITY     FAIR      28  19  69 NW10      29.80R WCI  19
$$

  *****  SOME WEATHER IN NEARBY STATES *****

CITY           SKY/WX    TMP DP  RH WIND       PRES   REMARKS
GLASGOW MT     CLOUDY    27  25  92 W12       29.81R WCI  17
GREAT FALLS MT CLOUDY    22  17  81 E6        29.80R WCI  14
CHEYENNE WY    FAIR      26  12  55 NW12      29.88R WCI  16
SCOTTSBLUFF NE CLOUDY    27  21  78 NW7       29.88R WCI  19
OMAHA NE       PTSUNNY   33  28  81 NW9       29.75R
DES MOINES IA  CLOUDY    34  32  92 NW12      29.70R
DAVENPORT IA   CLOUDY    32  31  96 CALM      29.67R FOG
CHICAGO IL     CLOUDY    41  38  89 N5        29.63R
EAU CLAIRE WI  CLOUDY    34  34 100 W5        29.64R FOG
LA CROSSE WI   FOG       38  35  89 CALM      29.66R VSB 1/2
$$

  *****  SOME NATIONAL WEATHER *****

CITY           SKY/WX    TMP DP  RH WIND       PRES   REMARKS
LA GUARDIA NY  FOG       44  43  96 NE10      29.74R VSB 1/2
RALEIGH NC     CLOUDY    54  53  97 E12       29.60F
ATLANTA GA     CLOUDY    58  57  97 E7        29.54F FOG
NEW ORLEANS LA LGT RAIN  57  53  86 NW14G23   29.52S
OKLAHOMA CITY  LGT RAIN  47  45  93 N29G36    29.59R
ALBUQUERQUE NM FAIR      29  22  75 S6        30.15R WCI  23
SALT LAKE CITY MOCLDY    28  22  78 SE15      29.95F WCI  16
LOS ANGELES CA LGT RAIN  51  48  89 E12       30.08S
BOISE ID       FAIR      38  26  62 SE16      29.69F
SEATTLE WA     MOCLDY    49  31  49 SE16      29.39S
$$

*** WEATHER ACROSS MANITOBA...SASKATCHEWAN AND ONTARIO ***
                ***ONTARIO***

CITY           SKY/WX    TMP DP  RH WIND       PRES   REMARKS
GERALDTON      LGT SNOW  32  30  93 NE10      29.69S WCI  24
THUNDER BAY    DRIZZLE   34  34 100 N2        29.66R FOG
SIOUX LOOKOUT  CLOUDY    34  32  93 E3        29.69R
TORONTO        FOG       39  37  93 E7        29.74R VSB 1/4
BIG TROUT LK   CLOUDY    23  23 100 SE7       29.85R WCI  15
PICKLE LAKE    FLURRIES  28  27  93 E6        29.74S WCI  22
DRYDEN         LGT SNOW  32  32 100 NE6       29.68S
KENORA         FOG       32  32 100 NE2       29.68R VSB 1/4
$$
                *** MANITOBA***

CITY           SKY/WX    TMP DP  RH WIND       PRES   REMARKS
BRANDON        LGT SNOW  32  30  93 W12       29.67R FOG     WCI  23
DAUPHIN        MIX PCPN  32  32 100 CALM      29.67R FOG
ISLAND LAKE    CLOUDY    30  30 100 E5        29.75  FOG
PILOT MOUND      N/A     28  28 100 W2          N/A
THE PAS        FLURRIES  32  32 100 NE6       29.71R
THOMPSON       LGT SNOW  28  27  93 NE8       29.77R WCI  20
WINNIPEG       FOG       34  32  93 SE5       29.69R VSB 1/4
LYNN LAKE      LGT SNOW  25  25 100 N7        29.82R WCI  17
CHURCHILL      CLOUDY    19  19 100 E7        29.92S FOG     WCI  10
GILLAM         CLOUDY    25  23  93 E3        29.83S FOG
$$
                ***SASKATCHEWAN***

CITY           SKY/WX    TMP DP  RH WIND       PRES   REMARKS
ESTEVAN        CLOUDY    27  27 100 W7        29.73R FOG     WCI  19
KINDERSLEY     FLURRIES  21  19  93 NW10      29.81R WCI  10
LLOYDMINSTER   LGT SNOW  18  16  93 N9        29.86R FOG     WCI   6
PRINCE ALBERT  LGT SNOW  25  21  86 N10       29.75R FOG     WCI  15
REGINA         CLOUDY    27  23  86 NW13      29.73R WCI  16
YORKTON        FLURRIES  27  25  93 W7        29.66R WCC1F1C2F2C3F3C4F4C5F5C6F6C7F7C8F8C9F9CaFaCbFbCcFcCdFdCe!



USA.gov is the U.S. government's official web portal to all federal, state and local government web resources and services.